Dewpoint
68 71 74 74 74 75 75 75 75 74 74 73 72 73 72 71 69 69 70 71 71 71 71 71 68 69 69 68 68 69 70 69 69 69 70 70 69 67 69 70 70 68 68
69 71 73 74 74 75 75 75 75 74 74 73 73 73 73 71 70 68 70 71 71 71 71 70 68 68 70 68 67 68 67 67 68 68 68 69 70 69 70 70 70 68 69
70 71 72 73 73 74 75 75 75 74 74 72 71 72 73 71 70 71 70 72 71 71 70 68 68 68 68 68 66 67 67 67 66 67 67 65 67 70 69 69 70 69 70
70 71 71 73 73 73 74 75 74 74 74 73 72 73 72 71 71 72 72 71 71 71 69 68 67 66 65 65 65 64 64 63 65 65 62 63 64 68 68 68 68 68 68
69 70 71 73 73 73 73 74 74 74 74 73 73 73 73 72 72 72 72 72 72 72 69 67 66 64 63 65 65 66 65 65 65 62 61 62 64 65 67 67 67 67 67
69 70 72 73 73 73 73 73 74 74 74 74 73 73 72 72 72 72 72 71 72 71 69 67 65 65 65 66 65 65 65 65 64 62 62 63 61 64 65 64 64 65 66
69 71 72 73 73 73 73 72 73 73 74 74 73 73 72 72 72 72 71 69 71 71 69 67 66 65 65 65 65 65 65 65 61 61 61 62 62 64 64 64 63 63 62
69 71 71 72 72 73 73 73 72 73 73 73 73 72 72 72 72 71 70 69 70 70 69 67 65 65 65 64 64 65 65 63 61 61 62 63 65 64 64 64 64 63 63
70 70 71 71 71 72 72 72 72 72 73 72 72 72 71 71 72 70 70 69 69 70 69 68 66 66 66 65 64 64 65 63 60 61 62 63 66 64 64 64 64 64 63
67 70 70 70 70 70 71 71 71 72 71 71 71 70 69 69 70 69 68 68 70 71 70 70 68 67 66 65 65 64 63 62 59 60 62 63 65 64 64 63 63 63 63
64 66 68 69 69 69 69 69 70 70 70 70 69 68 67 67 67 64 64 65 69 70 70 69 69 69 68 66 64 62 61 57 59 60 61 66 65 63 63 62 62 62 61
62 63 65 65 66 66 68 68 67 69 69 69 68 67 64 64 64 61 63 65 68 68 69 68 68 67 64 60 59 61 57 56 55 60 62 67 65 64 63 63 62 62 61
61 62 62 64 64 64 66 65 67 68 68 68 67 66 65 63 63 63 62 65 65 65 66 66 66 63 59 57 56 55 54 53 54 59 62 67 67 65 66 66 65 65 64
60 61 61 62 62 63 64 63 65 68 68 67 66 65 65 64 63 64 62 64 63 64 63 63 61 59 57 56 56 55 53 53 54 58 60 65 67 65 66 66 67 67 67
59 60 61 61 61 62 61 62 63 65 67 67 66 65 64 64 63 63 63 63 63 63 62 61 60 58 56 55 55 54 54 53 54 56 58 62 65 66 66 65 66 66 66
58 58 60 60 61 62 62 62 62 63 65 66 66 65 65 64 63 63 62 63 63 63 62 61 59 58 56 56 53 53 54 54 55 57 55 58 63 65 66 66 65 65 65
58 57 59 60 60 60 61 62 62 63 63 64 65 66 65 65 64 62 62 62 62 62 61 60 58 57 55 53 52 53 55 55 56 57 55 55 59 62 64 65 66 66 65
57 58 58 59 60 60 61 62 62 64 63 62 62 65 64 64 65 64 62 62 62 60 58 58 57 53 52 54 54 55 55 55 56 57 58 57 58 58 62 65 67 67 66
57 59 59 59 59 60 60 62 62 62 63 63 62 61 61 62 64 64 62 61 60 59 57 56 56 55 55 55 55 55 54 54 55 57 56 57 59 60 60 62 64 64 63
58 59 60 61 59 59 60 61 62 63 62 63 61 58 59 60 61 61 59 58 58 58 57 57 56 57 56 56 55 54 54 54 56 57 55 56 58 60 59 58 59 58 61
57 59 60 60 62 61 61 61 62 61 62 62 61 59 58 59 59 59 58 58 59 58 58 58 57 57 57 57 57 58 59 58 57 56 57 57 57 57 56 56 56 57 60
55 56 59 60 60 60 61 61 62 62 62 62 62 61 59 59 59 58 59 60 61 61 60 59 59 59 58 59 57 57 55 56 59 59 56 55 55 55 54 54 55 57 58
54 54 53 55 60 59 61 61 62 63 63 62 62 61 61 61 61 61 61 61 61 61 61 60 61 60 59 60 61 58 55 53 55 56 55 55 54 54 54 54 54 55 56
53 54 54 55 58 60 60 60 60 60 60 61 60 61 62 62 63 63 62 62 61 61 61 60 61 60 59 58 60 61 59 57 53 52 54 53 52 52 53 51 53 54 55
56 57 57 58 56 59 59 61 59 59 60 61 61 60 61 61 62 62 62 62 61 62 61 61 60 60 60 59 57 58 57 56 55 53 51 52 54 54 53 51 50 52 54
57 58 58 58 59 59 60 61 60 60 59 59 60 59 60 61 61 62 62 62 62 62 61 61 60 60 59 58 58 57 57 55 54 52 51 51 50 50 51 51 50 51 52
Lifted_Index
-1 -2 -3 -3 -3 -4 -4 -4 -4 -3 -3 -2 -2 -2 -1 0 1 2 2 1 1 1 1 2 3 3 3 3 3 3 3 3 3 2 2 2 2 2 1 0 0 0 1
-2 -3 -3 -3 -4 -4 -4 -4 -4 -3 -3 -2 -2 -2 -1 -0 1 2 2 1 1 1 1 2 3 3 3 3 4 4 4 4 3 3 2 2 2 1 1 0 0 0 0
-2 -3 -3 -3 -4 -4 -4 -4 -4 -4 -3 -2 -1 -2 -1 -1 0 1 1 1 1 1 2 3 4 4 4 4 5 5 5 5 5 4 4 3 2 1 1 1 1 0 0
-2 -3 -3 -3 -3 -3 -4 -4 -4 -4 -3 -2 -2 -2 -1 -1 -1 -0 0 0 1 1 2 4 4 5 5 5 5 5 5 6 6 5 5 4 3 2 2 1 1 1 1
-2 -2 -3 -3 -3 -3 -3 -4 -4 -4 -3 -3 -2 -2 -2 -1 -1 -1 -0 0 1 1 3 4 5 6 6 6 5 5 5 6 6 6 5 4 4 3 3 2 2 2 2
-2 -2 -3 -3 -3 -3 -3 -3 -3 -4 -4 -3 -3 -2 -2 -1 -1 -1 -0 0 1 1 3 4 5 6 6 5 5 5 5 6 7 6 6 5 5 4 4 4 3 3 3
-2 -2 -3 -3 -3 -3 -3 -3 -3 -3 -3 -3 -3 -2 -2 -1 -1 -1 0 1 1 1 3 4 5 5 5 5 5 5 6 6 7 7 6 5 5 4 4 4 4 4 4
-2 -3 -3 -3 -3 -3 -3 -3 -3 -3 -3 -3 -3 -2 -2 -1 -1 -0 1 1 1 1 3 4 5 5 5 5 6 6 6 6 6 6 6 5 4 4 4 4 4 4 4
-3 -3 -3 -3 -3 -3 -3 -3 -3 -3 -3 -3 -3 -2 -2 -1 -1 -0 1 2 1 1 2 3 4 4 5 5 6 6 6 6 6 6 6 5 4 4 4 4 4 4 4
-3 -3 -3 -3 -2 -2 -2 -3 -3 -3 -3 -3 -2 -2 -1 -1 -1 1 2 2 1 1 1 2 2 3 4 5 6 6 6 6 6 6 6 5 4 4 4 4 4 4 4
-2 -2 -3 -2 -2 -1 -2 -2 -2 -2 -3 -2 -2 -2 -1 -1 0 1 3 2 1 1 1 1 2 3 4 5 6 7 7 7 6 6 5 5 4 4 4 4 4 4 4
-1 -1 -2 -2 -1 -1 -1 -1 -1 -2 -2 -2 -2 -1 -1 -0 1 2 3 3 2 2 2 2 3 4 5 7 7 7 7 7 6 6 5 4 3 3 4 4 4 4 4
1 -0 -1 -1 -1 -1 -0 -0 -1 -1 -1 -2 -1 -1 -1 -0 1 2 2 2 2 2 2 3 4 5 7 8 8 8 7 7 7 6 5 4 3 3 3 2 2 2 2
2 1 -0 -0 -1 -0 0 0 -0 -1 -1 -1 -1 -1 -1 -1 0 1 2 2 2 3 3 4 5 7 7 8 7 7 7 7 7 6 5 4 3 2 2 1 1 1 1
2 1 1 0 0 0 1 1 1 0 -0 -1 -1 -1 -1 -1 -0 1 1 2 2 3 3 5 6 7 7 7 7 7 6 6 6 5 4 4 3 3 2 1 1 1 1
3 2 1 1 0 0 1 1 2 2 1 0 -1 -1 -1 -1 -0 1 1 2 2 2 3 5 6 6 6 6 6 6 5 5 4 4 4 3 3 3 2 1 1 1 1
4 3 2 2 1 1 1 2 2 2 2 1 0 -0 -1 -1 -0 1 1 2 2 2 3 4 5 5 5 6 6 6 5 4 3 3 3 3 3 3 2 2 1 0 0
5 4 3 3 3 3 2 2 2 3 3 2 1 0 -1 -0 0 1 1 2 2 2 3 4 4 4 5 6 6 5 4 4 3 2 2 2 2 2 2 2 1 1 1
5 4 3 3 3 3 3 3 3 3 3 3 2 1 1 1 1 1 2 2 2 3 3 3 4 4 5 5 5 4 4 3 3 2 2 1 2 2 2 2 2 2 3
4 4 3 3 3 3 3 4 4 4 4 3 3 2 2 2 2 1 2 2 3 3 3 3 3 4 4 4 4 3 3 3 2 2 1 1 1 2 2 2 3 3 4
4 4 3 3 3 3 3 3 3 4 4 3 2 2 2 2 2 1 2 2 2 2 2 2 2 3 3 3 2 2 2 2 2 1 1 1 1 1 2 2 3 4 4
5 5 4 4 3 3 3 2 2 3 3 3 2 2 2 2 2 2 2 2 2 1 1 1 1 1 1 1 1 1 1 1 1 1 1 1 0 1 1 2 3 4 4
5 6 6 5 4 3 2 2 1 1 2 2 2 2 2 2 2 2 2 2 1 0 -0 -0 0 0 -0 -0 -0 0 1 1 1 1 0 0 0 1 1 2 3 4 5
4 5 5 5 4 3 2 1 1 1 1 1 2 2 2 2 2 2 2 1 0 -1 -1 -0 -0 -1 -1 -0 0 0 0 1 1 1 1 1 1 1 1 2 3 4 5
3 3 3 3 3 2 2 1 1 1 1 1 2 2 2 2 2 2 1 1 0 -0 0 0 0 0 -0 0 0 0 0 1 1 1 1 1 1 2 2 3 3 4 5
2 2 2 2 2 2 2 1 1 2 2 2 2 3 3 3 2 2 1 1 1 1 1 1 1 1 0 0 0 0 0 1 1 1 1 1 2 2 2 3 3 4 5